Regional Weather Roundup
Issued by NWS

Home | Current Version | Previous Version | Graphics & Text | Print | Product List | Glossary On
Versions: 1 2 3 4 5 6 7 8 9 10 11 12 13 14 15 16 17 18 19 20 21 22 23 24 25 26 27 28 29 30 31 32 33 34 35 36 37 38 39 40 41 42 43 44 45 46 47 48 49 50
000
ASUS43 KMPX 230110
RWRMN
WEATHER ROUNDUP FOR MINNESOTA
NATIONAL WEATHER SERVICE TWIN CITIES/CHANHASSEN MN
800 PM CDT SUN OCT 22 2017


NOTE: "FAIR" INDICATES FEW OR NO CLOUDS BELOW 12,000 FEET WITH NO
SIGNIFICANT WEATHER AND/OR OBSTRUCTIONS TO VISIBILITY. N/A MEANS
CURRENT SKY AND/OR WEATHER CONDITIONS ARE NOT AVAILABLE.

MNZ060>063-068>070-230200-
   Twin Cities Metro

CITY           SKY/WX    TMP DP  RH WIND       PRES   REMARKS
TWIN CITIES    PTCLDY    58  33  39 S10       29.94S
ST PAUL        CLEAR     50  40  68 SE6       29.94S
CRYSTAL        PTCLDY    51  32  48 S7        29.91F
BLAINE         CLEAR     50  36  57 S7        29.92S
LAKEVILLE      CLEAR     48  36  61 S3        29.95S
EDEN PRAIRIE   CLEAR     52  34  50 SE8       29.92S
SOUTH ST PAUL  CLEAR     54  32  43 S3        29.94S
LAKE ELMO      FAIR      50  36  57 S7        29.95S
$$
MNZ001>005-007-008-013>017-022>024-027-028-230200-
   Northwest Minnesota

CITY           SKY/WX    TMP DP  RH WIND       PRES   REMARKS
BEMIDJI        PTCLDY    57  31  37 SW16G22   29.75F
HALLOCK        LGT RAIN  54  45  71 S10       29.61F
ROSEAU         PTCLDY    57  36  44 SW18      29.65F
WARROAD        CLOUDY    55  36  47 SW9       29.65F
THIEF RVR FALL CLOUDY    59  32  36 SW15G28   29.69R
CROOKSTON      DRIZZLE   59  30  33 S15G21    29.68S
FOSSTON        CLOUDY    55  28  35 S13       29.71F
DETROIT LAKES  CLOUDY    59  32  36 S9        29.77S
MOORHEAD       CLOUDY    61  30  31 S12G22    29.73S
PARK RAPIDS    CLOUDY    55  32  41 SW9       29.79S
MAHNOMEN       CLOUDY    56  32  40 S14       29.72S
$$
MNZ006-009>011-018-025>026-230200-
   North Central Minnesota

CITY           SKY/WX    TMP DP  RH WIND       PRES   REMARKS
BAUDETTE       CLOUDY    56  29  35 S16G25    29.68S
FLAG ISLAND    CLOUDY    55  30  38 SW17G25   29.63R
INTL FALLS     CLOUDY    51  29  42 S6        29.72F
WASKISH        CLOUDY    57  37  47 SW13G28     N/A
BIG FORK       MOCLDY    54  32  43 S6        29.77F
LONGVILLE      MOCLDY    55  32  41 S8        29.80F
GRAND RAPIDS   PTCLDY    52  31  44 S9        29.83F
CRANE LAKE     MOCLDY    39  34  81 SE3       29.80F
ORR            MOCLDY    48  27  43 S7        29.77F
COOK           MOCLDY    50  30  46 S6        29.81F
WALKER         CLOUDY    56  30  37 S9        29.78S
$$
MNZ012-019>021-037-230200-
   Northeast Minnesota

CITY           SKY/WX    TMP DP  RH WIND       PRES   REMARKS
DULUTH         PTCLDY    50  31  48 SW8       29.87S
ELY            CLEAR     46  30  53 S6        29.84S
HIBBING        MOCLDY    46  28  49 S5        29.83S
EVELETH        CLOUDY    46  20  35 S5        29.85S
DULUTH HARBOR  PTCLDY    55  37  50 S12       29.88S
TWO HARBORS    CLEAR     45  36  70 CALM      29.86S
SILVER BAY     CLEAR     39  34  81 CALM      29.86S
G MARAIS ARPRT CLEAR     43  28  56 SW3       29.87S
$$
MNZ029>031-032-039>041-046>048-054>057-064-230200-
   West Central Minnesota

CITY           SKY/WX    TMP DP  RH WIND       PRES   REMARKS
FERGUS FALLS   CLOUDY    61  34  36 S13G25    29.78F
WHEATON        LGT RAIN  59  30  33 S10       29.80F
MORRIS         PTCLDY    55  37  50 S8        29.82S
ALEXANDRIA     CLOUDY    55  34  45 S8        29.84S
ELBOW LAKE     MOCLDY    56  35  43 S8        29.81F
WADENA         CLOUDY    54  36  50 S9G16     29.80F
GLENWOOD       PTCLDY    54  36  50 S7        29.85S
APPLETON       MOCLDY    59  30  33 S6        29.83S
BENSON         MOCLDY    55  34  44 SW7       29.85S
ORTONVILLE     MOCLDY    57  32  38 N6        29.82S
MADISON        CLOUDY    59  34  38 S5        29.84S
WILLMAR        FAIR      54  36  50 S5        29.88S
$$
MNZ033>034-036-042>043-049>051-058-059-230200-
   Central Minnesota

CITY           SKY/WX    TMP DP  RH WIND       PRES   REMARKS
ST CLOUD       PTCLDY    50  37  61 SE8       29.88S
SAUK CENTRE    FAIR      49  37  61 S7        29.85S
PAYNESVILLE    PTCLDY    55  36  47 S8        29.87F
AITKIN         MOCLDY    50  34  53 S7        29.84S
PINE RIVER     MOCLDY    52  34  50 S7        29.85F
BRAINERD       PTCLDY    54  32  43 S8        29.84F
STAPLES        CLOUDY    54  32  43 S10       29.82F
LONG PRAIRIE   FAIR      52  34  50 SE8       29.84F
LITTLE FALLS   MOCLDY    52  25  35 SE6       29.86S
LITCHFIELD     PTCLDY    55  36  47 CALM      29.89S
BUFFALO        CLOUDY    54  33  44 SE5       29.91F
MAPLE LAKE     CLOUDY    54  36  50 S3        29.90F
HUTCHINSON     CLOUDY    53  36  53 S3        29.91S
$$
MNZ037-044-045-052-053-230200-
   East Central Minnesota

CITY           SKY/WX    TMP DP  RH WIND       PRES   REMARKS
PRINCETON      CLOUDY    54  36  50 SE6       29.90S
MORA           MOCLDY    50  32  50 S5        29.91S
CAMBRIDGE      CLOUDY    55  37  50 SE5       29.91S
RUSH CITY      PTCLDY    51  35  53 S5        29.91S
MOOSE LAKE     MOCLDY    46  32  57 CALM      29.86S
HINCKLEY       FAIR      52  32  46 S6        29.90S
CLOQUET        PTCLDY    48  28  46 S3        29.88R
MCGREGOR       CLOUDY    50  34  53 S6        29.86F
$$
MNZ071>073-080-081-089-090-097-098-230200-
   Southwest Minnesota

CITY           SKY/WX    TMP DP  RH WIND       PRES   REMARKS
MONTEVIDEO     PTCLDY    57  34  41 SW7       29.85S
GRANITE FALLS  CLOUDY    55  36  48 SE9       29.88S
CANBY          CLOUDY    60  31  33 S6        29.85S
MARSHALL       CLOUDY    55  34  45 S10       29.87F
REDWOOD FALLS  PTCLDY    53  33  46 S10       29.88S
OLIVIA         PTCLDY    54  36  50 S8        29.87F
PIPESTONE      CLOUDY    54  28  37 SW8       29.88F
WORTHINGTON    CLEAR     53  32  44 S9        29.93R
JACKSON        CLEAR     52  32  46 S7        29.94S
TRACY          CLOUDY    56  34  43 S9        29.89S
SLAYTON        CLOUDY    53  32  45 S9        29.91S
$$
MNZ065>067-074>077-082>085-091>093-230200-
   South Central Minnesota

CITY           SKY/WX    TMP DP  RH WIND       PRES   REMARKS
MANKATO        PTCLDY    54  34  46 S8        29.95S
NEW ULM          N/A     54  34  47 S8          N/A
ST JAMES       CLOUDY    54  36  50 SE10      29.94S
FAIRMONT       CLEAR     49  37  63 S9        29.95S
GLENCOE        PTCLDY    56  34  44 S5        29.91S
FARIBAULT      CLEAR     54  34  47 S5        29.96S
OWATONNA       CLEAR     50  36  57 S8        29.97S
WASECA         CLEAR     52  36  54 S6        29.97S
$$
MNZ078>079-086>088-094>096-230200-
   Southeast Minnesota

CITY           SKY/WX    TMP DP  RH WIND       PRES   REMARKS
ROCHESTER      CLEAR     46  37  71 S6        30.00S
RED WING       CLEAR     45  36  70 CALM      29.96S
STANTON        CLEAR     48  36  63 S3        29.94F
DODGE CENTER   CLEAR     45  36  70 S6        29.99R
WINONA         CLEAR     52  41  66 SE8       30.01S
AUSTIN         CLEAR     52  32  46 S3        29.99S
PRESTON        CLEAR     49  38  66 S6        30.02R
$$
ABBREVIATIONS USED IN REMARKS
   TC - TEMPERATURES IN CELSIUS
  WCI - WIND CHILL INDEX
   HX - HEAT INDEX
  VSB - VISIBILITY
$$




USA.gov is the U.S. government's official web portal to all federal, state and local government web resources and services.